Weather History for Romeoville, IL

Change the Weather History Date:

Tuesday, January 28, 2014

  Actual Average Record
Temperature  
Mean Temperature -6 °F 24 °F  
Max Temperature 3 °F 31 °F 56 °F (2002)
Min Temperature -15 °F 16 °F -15 °F (2014)
Degree Days  
Heating Degree Days 71 41  
Month to date heating degree days 1418 1172  
Since 1 July heating degree days 4062 3558  
Cooling Degree Days 0 0  
Month to date cooling degree days 0 0  
Year to date cooling degree days 0 0  
Moisture  
Dew Point -13 °F    
Average Humidity 68    
Maximum Humidity 76    
Minimum Humidity 61    
Precipitation  
Precipitation 0.00 in 0.06 in 0.57 in (2006)
Month to date precipitation 2.55 1.78  
Year to date precipitation 2.55 1.78  
Snow  
Snow 0.00 in 0.30 in 1.50 in (2009)
Month to date snowfall 29.2 9.8  
Since 1 July snowfall 42.3 20.0  
Snow Depth 0.00 in    
Sea Level Pressure  
Sea Level Pressure 30.36 in    
Wind  
Wind Speed 9 mph (WSW)    
Max Wind Speed 17 mph    
Max Gust Speed 22 mph    
Visibility 10 miles    
Events      
T = Trace of Precipitation, MM = Missing Value Source: NWS Daily Summary

Daily Weather History Graph

Daily Weather History Graph

Search for Another Location

Airport:

Trip Planner

Search our weather history database for the weather conditions in past years. The results will help you decide how hot, cold, wet, or windy it might be!

Date:

Astronomy

Jan. 28, 2014 Rise Set
Actual Time 7:08 AM CST 5:03 PM CST
Civil Twilight 6:38 AM CST 5:32 PM CST
Nautical Twilight 6:04 AM CST 6:06 PM CST
Astronomical Twilight 5:32 AM CST 6:39 PM CST
Moon 4:49 AM CST (1/28) 2:52 PM CST (1/28)
Length of Visible Light 10h 54m
Length of Day
9h 55m
Waning Crescent, 7% of the Moon is Illuminated
Jan 28
Waning Crescent
Jan 30
New
Feb 6
First Quarter
Feb 14
Full
Feb 22
Last Quarter

Hourly Weather History & Observations

Time (CST) Temp. Windchill Dew Point Humidity Pressure Visibility Wind Dir Wind Speed Gust Speed Precip Events Conditions
12:15 AM -10.8 °F -26.0 °F -18.4 °F 69% 30.43 in 10.0 mi West 6.9 mph - N/A   Clear
12:35 AM -10.8 °F -26.0 °F -18.6 °F 69% 30.43 in 10.0 mi West 6.9 mph - N/A   Clear
12:55 AM -11.0 °F -28.8 °F -18.6 °F 69% 30.42 in 10.0 mi West 9.2 mph - N/A   Clear
1:15 AM -12.1 °F -27.5 °F -18.9 °F 72% 30.42 in 10.0 mi West 6.9 mph - N/A   Clear
1:35 AM -11.2 °F -29.0 °F -18.4 °F 70% 30.42 in 10.0 mi WNW 9.2 mph - N/A   Clear
1:55 AM -11.9 °F -28.7 °F -18.8 °F 72% 30.42 in 10.0 mi West 8.1 mph - N/A   Clear
2:15 AM -12.1 °F -28.9 °F -19.1 °F 71% 30.43 in 10.0 mi West 8.1 mph - N/A   Clear
2:35 AM -11.4 °F -29.3 °F -18.8 °F 70% 30.42 in 10.0 mi West 9.2 mph - N/A   Clear
2:55 AM -12.3 °F -27.7 °F -19.3 °F 71% 30.42 in 10.0 mi WSW 6.9 mph - N/A   Clear
3:15 AM -12.3 °F -26.1 °F -19.3 °F 71% 30.41 in 10.0 mi WSW 5.8 mph - N/A   Clear
3:35 AM -13.4 °F -27.4 °F -19.3 °F 75% 30.41 in 10.0 mi WSW 5.8 mph - N/A   Clear
3:55 AM -13.0 °F -28.6 °F -19.1 °F 74% 30.41 in 10.0 mi SW 6.9 mph - N/A   Clear
4:15 AM -13.4 °F -27.4 °F -19.3 °F 75% 30.41 in 10.0 mi SW 5.8 mph - N/A   Clear
4:35 AM -13.4 °F -29.0 °F -19.3 °F 75% 30.41 in 10.0 mi WSW 6.9 mph - N/A   Clear
4:55 AM -13.4 °F -29.0 °F -19.7 °F 73% 30.42 in 10.0 mi WSW 6.9 mph - N/A   Clear
5:15 AM -12.8 °F -29.8 °F -19.3 °F 73% 30.42 in 10.0 mi WSW 8.1 mph - N/A   Clear
5:35 AM -13.0 °F -31.3 °F -19.3 °F 73% 30.42 in 10.0 mi SW 9.2 mph - N/A   Clear
5:55 AM -13.2 °F -30.2 °F -19.3 °F 74% 30.43 in 10.0 mi WSW 8.1 mph - N/A   Clear
6:15 AM -13.4 °F -29.0 °F -19.7 °F 73% 30.42 in 10.0 mi West 6.9 mph - N/A   Clear
6:35 AM -13.4 °F -30.4 °F -19.7 °F 73% 30.42 in 10.0 mi WSW 8.1 mph - N/A   Clear
6:55 AM -13.4 °F -30.4 °F -19.5 °F 74% 30.42 in 10.0 mi West 8.1 mph - N/A   Clear
7:15 AM -13.2 °F -30.2 °F -19.3 °F 74% 30.42 in 10.0 mi West 8.1 mph - N/A   Clear
7:35 AM -12.6 °F -30.8 °F -19.1 °F 73% 30.43 in 10.0 mi WSW 9.2 mph - N/A   Clear
7:55 AM -11.6 °F -30.6 °F -18.4 °F 72% 30.43 in 10.0 mi West 10.4 mph - N/A   Clear
8:15 AM -10.8 °F -29.7 °F -18.4 °F 69% 30.43 in 10.0 mi West 10.4 mph - N/A   Clear
8:35 AM -9.8 °F -27.3 °F -17.5 °F 69% 30.43 in 10.0 mi WSW 9.2 mph - N/A   Clear
8:55 AM -8.9 °F -25.0 °F -17.1 °F 67% 30.44 in 10.0 mi West 8.1 mph - N/A   Clear
9:15 AM -8.0 °F -26.1 °F -16.6 °F 66% 30.43 in 10.0 mi West 10.4 mph - N/A   Clear
9:35 AM -6.9 °F -24.8 °F -15.5 °F 66% 30.43 in 10.0 mi West 10.4 mph - N/A   Clear
9:55 AM -6.2 °F -23.9 °F -15.2 °F 65% 30.43 in 10.0 mi West 10.4 mph - N/A   Clear
10:15 AM -5.1 °F -21.5 °F -14.6 °F 63% 30.44 in 10.0 mi West 9.2 mph - N/A   Clear
10:35 AM -4.2 °F -21.4 °F -13.9 °F 63% 30.44 in 10.0 mi West 10.4 mph - N/A   Clear
10:55 AM -3.3 °F -22.8 °F -13.0 °F 63% 30.43 in 10.0 mi West 13.8 mph 18.4 mph N/A   Clear
11:15 AM -2.6 °F -21.1 °F -12.6 °F 62% 30.41 in 10.0 mi West 12.7 mph - N/A   Clear
11:35 AM -1.8 °F -20.2 °F -11.6 °F 63% 30.41 in 10.0 mi West 12.7 mph - N/A   Clear
11:55 AM -1.3 °F -21.0 °F -11.9 °F 61% 30.39 in 10.0 mi West 15.0 mph - N/A   Clear
12:15 PM -0.8 °F -21.6 °F -10.5 °F 63% 30.38 in 10.0 mi West 17.3 mph - N/A   Clear
12:35 PM -0.4 °F -18.4 °F -9.6 °F 65% 30.37 in 10.0 mi West 12.7 mph - N/A   Clear
12:55 PM 0.1 °F -19.8 °F -9.0 °F 65% 30.37 in 10.0 mi West 16.1 mph - N/A   Clear
1:15 PM 0.7 °F -18.5 °F -9.0 °F 64% 30.36 in 10.0 mi West 15.0 mph 20.7 mph N/A   Clear
1:35 PM 1.2 °F -17.1 °F -8.7 °F 63% 30.35 in 10.0 mi West 13.8 mph - N/A   Clear
1:55 PM 1.9 °F -18.1 °F -7.8 °F 64% 30.34 in 10.0 mi West 17.3 mph 21.9 mph N/A   Clear
2:15 PM 2.3 °F -17.1 °F -7.6 °F 63% 30.33 in 10.0 mi West 16.1 mph - N/A   Clear
2:35 PM 2.8 °F -15.7 °F -7.8 °F 61% 30.32 in 10.0 mi West 15.0 mph 20.7 mph N/A   Clear
2:55 PM 2.8 °F -15.0 °F -7.6 °F 62% 30.32 in 10.0 mi West 13.8 mph - N/A   Clear
3:15 PM 3.2 °F -15.9 °F -7.6 °F 61% 30.32 in 10.0 mi West 16.1 mph 19.6 mph N/A   Clear
3:35 PM 3.0 °F -14.8 °F -7.8 °F 61% 30.32 in 10.0 mi West 13.8 mph 20.7 mph N/A   Clear
3:55 PM 3.0 °F -14.1 °F -7.4 °F 62% 30.31 in 10.0 mi West 12.7 mph - N/A   Clear
4:15 PM 3.0 °F -16.1 °F -7.8 °F 61% 30.31 in 10.0 mi West 16.1 mph - N/A   Clear
4:35 PM 3.0 °F -16.1 °F -7.8 °F 61% 30.30 in 10.0 mi West 16.1 mph 20.7 mph N/A   Clear
4:55 PM 2.7 °F -13.8 °F -7.6 °F 62% 30.29 in 10.0 mi WSW 11.5 mph - N/A   Clear
5:15 PM 2.3 °F -15.0 °F -7.8 °F 63% 30.30 in 10.0 mi West 12.7 mph - N/A   Clear
5:35 PM 1.9 °F -13.8 °F -7.8 °F 64% 30.30 in 10.0 mi West 10.4 mph - N/A   Clear
5:55 PM 2.1 °F -13.6 °F -7.6 °F 64% 30.30 in 10.0 mi West 10.4 mph - N/A   Clear
6:15 PM 1.8 °F -14.0 °F -7.8 °F 64% 30.30 in 10.0 mi West 10.4 mph - N/A   Clear
6:35 PM 1.6 °F -13.3 °F -7.8 °F 65% 30.29 in 10.0 mi West 9.2 mph - N/A   Clear
6:55 PM 1.2 °F -11.5 °F -7.8 °F 66% 30.29 in 10.0 mi WSW 6.9 mph - N/A   Clear
7:15 PM -0.0 °F -14.2 °F -8.5 °F 68% 30.28 in 10.0 mi SW 8.1 mph - N/A   Clear
7:35 PM 0.3 °F -12.6 °F -8.0 °F 68% 30.27 in 10.0 mi SW 6.9 mph - N/A   Clear
7:55 PM -0.8 °F -10.8 °F -8.7 °F 69% 30.27 in 10.0 mi SW 4.6 mph - N/A   Clear
8:15 PM -2.2 °F -12.5 °F -9.6 °F 71% 30.27 in 10.0 mi SW 4.6 mph - N/A   Clear
8:35 PM -2.2 °F -14.2 °F -9.4 °F 71% 30.27 in 10.0 mi SW 5.8 mph - N/A   Clear
8:55 PM -1.8 °F -13.7 °F -8.7 °F 73% 30.27 in 10.0 mi WSW 5.8 mph - N/A   Clear
9:15 PM -3.3 °F -16.9 °F -9.9 °F 73% 30.26 in 10.0 mi SW 6.9 mph - N/A   Clear
9:35 PM -2.2 °F -16.8 °F -8.5 °F 75% 30.26 in 10.0 mi SW 8.1 mph - N/A   Clear
9:55 PM -0.9 °F -14.1 °F -7.2 °F 75% 30.26 in 10.0 mi WSW 6.9 mph - N/A   Clear
10:15 PM -1.1 °F -14.3 °F -7.2 °F 75% 30.26 in 10.0 mi WSW 6.9 mph - N/A   Clear
10:35 PM -0.4 °F -15.7 °F -7.2 °F 73% 30.25 in 10.0 mi WSW 9.2 mph - N/A   Clear
10:55 PM -0.4 °F -15.7 °F -7.1 °F 73% 30.24 in 10.0 mi West 9.2 mph - N/A   Clear
11:15 PM -0.6 °F -16.0 °F -7.4 °F 73% 30.24 in 10.0 mi West 9.2 mph - N/A   Clear
11:35 PM -1.3 °F -15.7 °F -7.6 °F 75% 30.24 in 10.0 mi West 8.1 mph - N/A   Clear
11:55 PM -1.7 °F -16.2 °F -7.6 °F 76% 30.24 in 10.0 mi West 8.1 mph - N/A   Clear